DB0HRC-6 Weather Reports


time (UTC)temp
C
wind
direction
speed
KPH
gust
KPH
rain 1hr
cm
rain 24hr
cm
rain mn
cm
humidity
%
barometer
mb
20260507090014 7 337 3.2 4.8 0.00 0.00 0.00 89 1008.3
20260507084517 7 337 3.2 4.8 0.00 0.00 0.00 89 1008.0
20260507083014 7 337 1.6 3.2 0.00 0.00 0.00 89 1008.0
20260507081514 7 337 1.6 3.2 0.00 0.00 0.00 89 1007.9
20260507080016 7 337 1.6 3.2 0.00 0.00 0.00 89 1007.6
20260507074515 7 337 3.2 6.4 0.00 0.00 0.00 89 1007.6
20260507073014 7 337 3.2 3.2 0.00 0.00 0.00 89 1007.2
20260507071515 7 337 1.6 3.2 0.00 0.00 0.00 89 1006.9
20260507070014 7 22 3.2 4.8 0.00 0.00 0.00 89 1006.8
20260507064514 7 337 1.6 4.8 0.00 0.00 0.00 89 1006.6
20260507063015 7 337 1.6 1.6 0.00 0.00 0.00 89 1006.7
20260507061515 8 337 1.6 1.6 0.00 0.00 0.00 89 1006.5
20260507060014 8 0 1.6 3.2 0.00 0.00 0.00 89 1006.0
20260507054514 8 0 1.6 3.2 0.00 0.00 0.00 89 1005.7
20260507053015 8 337 1.6 3.2 0.00 0.00 0.00 89 1005.5
20260507051514 8 22 1.6 4.8 0.00 0.00 0.00 89 1005.6
20260507050014 8 0 1.6 3.2 0.00 0.00 0.00 89 1005.5
20260507044514 8 22 1.6 3.2 0.00 0.00 0.00 89 1005.0
20260507043015 8 0 3.2 4.8 0.00 0.00 0.00 89 1004.8
20260507041516 8 337 0.0 1.6 0.00 0.00 0.00 89 1004.7
20260507040015 8 337 1.6 1.6 0.00 0.00 0.00 89 1004.6
20260507034515 8 22 1.6 3.2 0.00 0.00 0.00 89 1004.4
20260507033014 8 22 3.2 4.8 0.00 0.00 0.00 89 1004.5
20260507031515 9 0 1.6 3.2 0.00 0.00 0.00 89 1004.4
20260507030015 9 337 0.0 3.2 0.00 0.00 0.00 89 1004.1
20260507024515 9 0 1.6 4.8 0.00 0.00 0.00 89 1004.3
20260507023014 9 22 1.6 3.2 0.00 0.00 0.00 89 1004.3
20260507021515 10 0 3.2 4.8 0.00 0.00 0.00 89 1004.1
20260507020014 10 0 1.6 3.2 0.00 0.00 0.00 89 1004.0
20260507014516 10 22 1.6 3.2 0.00 0.00 0.00 88 1004.0
20260507013015 10 337 1.6 3.2 0.00 0.00 0.00 88 1004.1
20260507011514 10 337 1.6 3.2 0.00 0.00 0.00 88 1003.9
20260507010014 10 0 1.6 3.2 0.00 0.00 0.00 88 1003.9
20260507004514 10 0 1.6 4.8 0.00 0.00 0.00 88 1003.8
20260507003014 10 0 1.6 1.6 0.00 0.00 0.00 88 1004.0
20260507001514 10 337 0.0 1.6 0.00 0.00 0.00 88 1003.6
20260507000014 10 0 0.0 1.6 0.00 0.00 0.00 88 1003.7
20260506234515 10 337 1.6 1.6 0.00 0.00 0.00 88 1003.7
20260506233014 11 337 0.0 1.6 0.00 0.00 0.00 88 1003.5
20260506231515 11 337 1.6 1.6 0.00 0.00 0.00 88 1003.8
20260506230014 11 337 0.0 1.6 0.00 0.00 0.00 88 1003.5
20260506224514 11 337 1.6 1.6 0.00 0.00 0.00 88 1003.3
20260506223014 11 337 1.6 3.2 0.00 0.00 0.00 88 1003.5
20260506221515 11 0 1.6 3.2 0.00 0.00 0.00 87 1003.3
20260506220014 11 337 1.6 3.2 0.00 0.00 0.00 88 1003.1
20260506214514 11 337 1.6 1.6 0.00 0.00 0.00 88 1003.1
20260506213014 11 0 1.6 3.2 0.00 0.00 0.00 87 1002.8
20260506211514 11 22 3.2 6.4 0.00 0.00 0.00 88 1003.0
20260506210014 11 337 1.6 1.6 0.00 0.00 0.00 88 1002.8
20260506204514 11 337 1.6 3.2 0.00 0.00 0.00 88 1002.7
20260506203015 11 247 1.6 3.2 0.00 0.00 0.00 88 1002.7
20260506201514 12 247 0.0 0.0 0.00 0.00 0.00 88 1002.8
20260506200014 12 247 0.0 0.0 0.00 0.00 0.00 88 1002.6
20260506194514 12 112 0.0 0.0 0.00 0.00 0.00 88 1002.6
20260506193014 12 337 0.0 1.6 0.00 0.00 0.00 88 1002.4
20260506191514 12 337 1.6 3.2 0.00 0.00 0.00 88 1002.0
20260506190013 12 337 0.0 1.6 0.00 0.00 0.00 87 1002.0
20260506184514 12 112 0.0 1.6 0.00 0.00 0.00 87 1001.9
20260506183014 12 22 1.6 3.2 0.00 0.00 0.00 86 1001.5
20260506181514 13 315 1.6 1.6 0.00 0.00 0.00 87 1001.5
20260506180013 13 22 1.6 3.2 0.00 0.00 0.00 87 1001.2
20260506174515 13 337 0.0 3.2 0.00 0.00 0.00 86 1001.1
20260506173015 13 315 1.6 1.6 0.00 0.00 0.00 86 1001.1
20260506171514 13 337 1.6 3.2 0.00 0.00 0.00 86 1000.9
20260506170014 14 337 1.6 3.2 0.00 0.00 0.00 85 1001.3
20260506164519 14 337 4.8 9.7 0.00 0.00 0.00 84 1001.0
20260506163014 15 337 1.6 3.2 0.00 0.00 0.00 82 1000.8
20260506161514 16 292 0.0 1.6 0.00 0.00 0.00 75 1000.9
20260506160015 16 315 1.6 3.2 0.00 0.00 0.00 73 1000.8
20260506154514 16 337 1.6 3.2 0.00 0.00 0.00 74 1000.7
20260506153014 16 22 1.6 3.2 0.00 0.00 0.00 73 1000.7
20260506151514 17 0 1.6 1.6 0.00 0.00 0.00 71 1000.5
20260506150014 17 337 1.6 3.2 0.00 0.00 0.00 67 1000.7
20260506144515 18 22 1.6 4.8 0.00 0.00 0.00 64 1000.7
20260506143014 17 337 3.2 6.4 0.00 0.00 0.00 68 1000.9
20260506141513 17 337 0.0 1.6 0.00 0.00 0.00 70 1000.7
20260506140014 17 22 1.6 3.2 0.00 0.00 0.00 69 1000.8
20260506134514 17 22 3.2 6.4 0.00 0.00 0.00 67 1001.1
20260506133014 17 45 1.6 3.2 0.00 0.00 0.00 69 1000.9
20260506131515 17 45 1.6 3.2 0.00 0.00 0.00 69 1001.2
20260506130014 17 292 1.6 3.2 0.00 0.00 0.00 70 1001.2
20260506124513 16 270 1.6 1.6 0.00 0.00 0.00 70 1001.2
20260506123014 16 247 0.0 1.6 0.00 0.00 0.00 74 1001.3
20260506121516 16 247 3.2 4.8 0.00 0.00 0.00 70 1001.3
20260506120014 19 225 0.0 0.0 0.00 0.00 0.00 61 1001.0
20260506114514 19 180 0.0 0.0 0.00 0.00 0.00 59 1001.1
20260506113013 18 225 0.0 1.6 0.00 0.00 0.00 63 1001.1
20260506111514 17 247 0.0 1.6 0.00 0.00 0.00 65 1001.2
20260506110014 16 247 0.0 1.6 0.00 0.00 0.00 68 1001.3
20260506104513 16 225 0.0 1.6 0.00 0.00 0.00 68 1001.3
20260506103014 17 225 0.0 1.6 0.00 0.00 0.00 68 1001.4
20260506101514 16 225 0.0 1.6 0.00 0.00 0.00 70 1001.5
20260506100014 16 225 0.0 0.0 0.00 0.00 0.00 73 1001.4
20260506094513 16 225 1.6 1.6 0.00 0.00 0.00 70 1001.2
20260506093014 16 247 1.6 1.6 0.00 0.00 0.00 71 1001.2
20260506091514 15 225 0.0 1.6 0.00 0.00 0.00 78 1001.2